TimeEST,TemperatureF,Dew PointF,Humidity,Sea Level PressureIn,VisibilityMPH,Wind Direction,Wind SpeedMPH,Gust SpeedMPH,PrecipitationIn,Events,Conditions,WindDirDegrees,DateUTC
12:54 AM,28.0,19.0,69,30.21,10.0,South,4.6,-,N/A,,Clear,180,2013-11-15 05:54:00
1:54 AM,27.0,19.0,72,30.22,10.0,Calm,Calm,-,N/A,,Clear,0,2013-11-15 06:54:00
2:54 AM,30.9,19.0,61,30.20,10.0,SW,3.5,-,N/A,,Clear,230,2013-11-15 07:54:00
3:54 AM,30.9,19.0,61,30.19,10.0,SSW,4.6,-,N/A,,Clear,210,2013-11-15 08:54:00
4:54 AM,30.0,18.0,61,30.20,10.0,South,3.5,-,N/A,,Clear,190,2013-11-15 09:54:00
5:54 AM,33.1,19.9,59,30.20,10.0,SSW,3.5,-,N/A,,Clear,200,2013-11-15 10:54:00
6:54 AM,27.0,19.9,75,30.22,10.0,SW,3.5,-,N/A,,Clear,230,2013-11-15 11:54:00
7:54 AM,35.1,21.0,57,30.23,10.0,South,4.6,-,N/A,,Clear,190,2013-11-15 12:54:00
8:54 AM,37.0,21.0,52,30.23,10.0,South,3.5,-,N/A,,Clear,180,2013-11-15 13:54:00
9:54 AM,43.0,21.9,43,30.24,10.0,South,5.8,-,N/A,,Clear,180,2013-11-15 14:54:00
10:54 AM,46.9,21.0,36,30.22,10.0,SSW,6.9,-,N/A,,Clear,210,2013-11-15 15:54:00
11:54 AM,48.9,17.1,28,30.19,10.0,SW,10.4,-,N/A,,Clear,230,2013-11-15 16:54:00
12:54 PM,52.0,17.1,25,30.18,10.0,SSW,10.4,-,N/A,,Clear,210,2013-11-15 17:54:00
1:54 PM,52.0,15.1,23,30.17,10.0,WSW,12.7,19.6,N/A,,Clear,240,2013-11-15 18:54:00
2:54 PM,53.1,15.1,22,30.15,10.0,SW,12.7,-,N/A,,Clear,220,2013-11-15 19:54:00
3:54 PM,51.1,14.0,23,30.17,10.0,SW,9.2,-,N/A,,Clear,220,2013-11-15 20:54:00
4:54 PM,48.9,16.0,27,30.17,10.0,SSW,4.6,-,N/A,,Clear,200,2013-11-15 21:54:00
5:54 PM,48.0,17.1,29,30.16,10.0,South,5.8,-,N/A,,Clear,190,2013-11-15 22:54:00
6:54 PM,46.9,18.0,32,30.18,10.0,SSW,3.5,-,N/A,,Clear,200,2013-11-15 23:54:00
7:54 PM,45.0,19.0,36,30.19,10.0,WSW,3.5,-,N/A,,Clear,240,2013-11-16 00:54:00
8:54 PM,42.1,21.9,45,30.19,10.0,Calm,Calm,-,N/A,,Mostly Cloudy,0,2013-11-16 01:54:00
9:54 PM,43.0,21.0,42,30.19,10.0,Variable,3.5,-,N/A,,Overcast,0,2013-11-16 02:54:00
10:54 PM,42.1,23.0,47,30.19,10.0,Calm,Calm,-,N/A,,Scattered Clouds,0,2013-11-16 03:54:00
11:54 PM,39.9,24.1,53,30.21,10.0,Calm,Calm,-,N/A,,Mostly Cloudy,0,2013-11-16 04:54:00